"Pseudo-MPEC" for P11l802

Created 2021 Sep 15 10:07:25 UT using Find_Orb

Click here for an explanation of pseudo-MPECs

 
 Astrometry: 
     P11l802  C2021 09 13=^rSU[xs6hr.1UQ!]h2Jrq/.dUvA.n^m@kVDulfGwIU(JlJ6=BaLF51
     P11l802  C2021 09 13*K[mAstrometryiO+6oQlKuhr;5L8_(@ctjTk2;qqgRw4vsfP$YUF51
     P11l802  C2021 09 13yGM:6,O\m0pGV]MT]+qVfEBI!q#yqmy$B5*5yU6UlS)F6c+bsqa;F51
     P11l802 pC2021 09 1330q_3M^_@7c=Lm,%C[nPn@[(TKiI9T@xAH6hMi_S7lX9imb?1V_FL01
     P11l802 KC2021 09 130h\1Ju?DMalcg5j1tC@!;/IWNZ4h[D0[A_Ua*\Pyi?iTn2V4hLD7L01
     P11l802 KC2021 09 13)LK=:,bJBBF'R-ehcphR51a)x=rfiWsB\j]i,-1)Sl5:2##(E0=WL01
     P11l802 |C2021 09 14q!UhsuXiR+14OnW\VBec5$GW[)#EF4p!i_tdqcpO^QCgS^,=M,uN807
     P11l802 |C2021 09 14dVWAVXUL3D1.b\redacted;K2^Tpjxf1QKHRJC[hTlc0$\8HX*%j807
     P11l802 |C2021 09 14CZag2Mx=Rpf_u/tcc@MMEEd7bf7tpemP4b-g:]lSXUMvsm#FlHd)807
     P11l802  C2021 09 14dPt_!7$HA^]*kJd_-08@e?8clickg?93A#=,T7EU(##Ja:.,drlL654
     P11l802  C2021 09 14(^lGX.`E'SXHVO.dg-sI0wMqk[XVSJ\5b(]@6w?qPRs,[(qijLAy654
     P11l802  C2021 09 14K3[)Ch-Y$JaaDQ^dHhpAtQ#ETGj!eYLRn0u]q.aAo@F:*H(TDV+!654
     P11l802  C2021 09 149HFsI1SPdG:9*eHEaqG'hereraetC?$tVv73jPQlDkP/mvJdwQ69654
     P11l802 |C2021 09 151\5)\:#8X:o(:*Y`($6kqf6dmL#d79yAv9D4Kx)AR15\DuIe0tRL807
     P11l802 |C2021 09 15dpskM](f]#PHQ4wforSE2iCa.Fu2D9\=*/!gP8jlhlwjG1g0SiTn807
     P11l802 |C2021 09 15wTOoOa9iDWM-2n]J9P8_']explanation,9$,I2PWZ'2/w;qj^;!807
     P11l802 KC2021 09 15.21935 23 23 01.86 -15 57 07.7    ~9F7M 22.0 RoNEOCP291
     P11l802 KC2021 09 15.22707 23 22 58.89 -15 56 00.4    ~9F7M 22.0 RoNEOCP291
     P11l802 KC2021 09 15.23469 23 22 55.98 -15 54 52.3    ~9F7M 21.0 RoNEOCP291

Station data:
(291) LPL/Spacewatch II  (N31.961669 W111.599905)  US/Arizona.  Observers J.
   V. Scotti, R. S. McMillan. 1.8-m f/2.7 reflector + CCD.
(654) Table Mountain Observatory, Wrightwood-PHMC  (N34.381822 W117.681590)
   US/California.
(807) Cerro Tololo Observatory, La Serena  (S30.169136 W70.805900)  Chile.
(F51) Pan-STARRS 1, Haleakala  (N20.707235 W156.255910)  US/Hawaii.
   Observers N. Primak, A. Schultz, S. Watters, J. Thiel, T. Goggia. Measurer
   PS1 Science Consortium. 1.8-m Ritchey-Chrétien + CCD.
(L01) Višnjan Observatory, Tičan  (N45.290900 E13.749300)  Croatia.
   Observers K. Korlević, E. Pettarin. Measurer E. Pettarin. 1.0-m f/2.9
   reflector + CCD.

Orbital elements:  P11l802
   Perihelion 2021 Jul 7.184168 +/- 0.0702578 TT =  4:25:12 (JD 2459402.684168)
Epoch 2021 Sep 15.0 TT = JDT 2459472.5   Earth MOID: 0.0770   AutoNEOCP
M  56.41596565 +/- 0.0918959        (J2000 ecliptic)
n   0.80806837 +/- 0.000578114      Peri.  288.79564 +/- 0.0764802
a   1.14157375 +/- 0.000544462      Node   355.43297 +/- 0.0021749
e   0.1059987 +/- 0.000393554       Incl.   12.56809 +/- 0.0301325
P   1.22/445.50d           H 26.1   G  0.15   U  7.7  
q 1.02056833 +/- 0.000169547    Q 1.26257917 +/- 0.00103593
From 19 observations 2021 Sept. 13-15 (43.7 hr); mean residual 0".30
Residuals in arcseconds: 
210913 F51  .38-  .37+    210914 807  .04-  .03+    210915 807  .26+  .02+    
210913 F51  .16+  .26-    210914 807  .09+  .03+    210915 807  .07-  .05-    
210913 F51  .44+  .45-    210914 654  .71+  .22-    210915 291  .02+  .08+    
210913 L01  .18-  .73+    210914 654  .22+  .45-    210915 291  .20-  .51-    
210913 L01  .44-  .08+    210914 654  .08+  .31-    210915 291  .03-  .55+    
210913 L01  .44-  .15+    210914 654  .04-  .08+    
210914 807  .10+  .11+    210915 807  .11-  .08-    

Ephemerides (geocentric):
Date (UTC) HH   RA              Dec         delta   r     elong  mag " sig PA
---- -- -- --  -------------   -----------  ------ ------ -----  --- ---- ---
2021 09 15 10  23 21 50.681   -15 26 46.35  .08125 1.0850 167.3 21.5 .156 127
2021 09 15 11  23 21 36.416   -15 20 39.19  .08131 1.0851 167.3 21.5 .161 127
2021 09 15 12  23 21 22.188   -15 14 32.46  .08137 1.0851 167.4 21.5 .165 127
2021 09 15 13  23 21 07.996   -15 08 26.16  .08143 1.0852 167.5 21.5 .170 126
2021 09 15 14  23 20 53.840   -15 02 20.30  .08149 1.0853 167.5 21.5 .174 126
2021 09 15 15  23 20 39.720   -14 56 14.89  .08155 1.0853 167.6 21.5 .179 126
2021 09 15 16  23 20 25.637   -14 50 09.92  .08161 1.0854 167.6 21.5 .184 125
2021 09 15 17  23 20 11.590   -14 44 05.40  .08168 1.0855 167.7 21.5 .189 125
2021 09 15 18  23 19 57.579   -14 38 01.33  .08174 1.0855 167.7 21.5 .195 125
2021 09 15 19  23 19 43.604   -14 31 57.72  .08180 1.0856 167.8 21.5 .200 125
2021 09 15 20  23 19 29.665   -14 25 54.57  .08187 1.0857 167.9 21.5 .206 125
2021 09 15 21  23 19 15.762   -14 19 51.88  .08193 1.0857 167.9 21.5 .211 125
2021 09 15 22  23 19 01.895   -14 13 49.66  .08200 1.0858 168.0 21.5 .217 125
2021 09 15 23  23 18 48.064   -14 07 47.91  .08206 1.0859 168.0 21.5 .223 125
2021 09 16 00  23 18 34.268   -14 01 46.63  .08213 1.0859 168.1 21.5 .229 125
2021 09 16 01  23 18 20.509   -13 55 45.82  .08219 1.0860 168.1 21.5 .235 125
2021 09 16 02  23 18 06.785   -13 49 45.50  .08226 1.0861 168.2 21.5 .241 125
2021 09 16 03  23 17 53.097   -13 43 45.66  .08233 1.0861 168.2 21.5 .247 125
2021 09 16 04  23 17 39.444   -13 37 46.30  .08239 1.0862 168.2 21.5 .254 126
2021 09 16 05  23 17 25.827   -13 31 47.43  .08246 1.0863 168.3 21.5 .260 126
2021 09 16 06  23 17 12.246   -13 25 49.06  .08253 1.0863 168.3 21.5 .267 126
2021 09 16 07  23 16 58.699   -13 19 51.18  .08260 1.0864 168.4 21.5 .274 126
2021 09 16 08  23 16 45.189   -13 13 53.79  .08267 1.0865 168.4 21.5 .280 126
2021 09 16 09  23 16 31.713   -13 07 56.91  .08274 1.0865 168.4 21.5 .287 126
2021 09 16 10  23 16 18.273   -13 02 00.53  .08281 1.0866 168.5 21.5 .294 127
2021 09 16 11  23 16 04.868   -12 56 04.66  .08288 1.0867 168.5 21.5 .302 127
2021 09 16 12  23 15 51.499   -12 50 09.30  .08295 1.0867 168.5 21.5 .309 127
2021 09 16 13  23 15 38.164   -12 44 14.45  .08302 1.0868 168.6 21.5 .316 127
2021 09 16 14  23 15 24.865   -12 38 20.12  .08309 1.0868 168.6 21.5 .324 127
2021 09 16 15  23 15 11.600   -12 32 26.30  .08316 1.0869 168.6 21.5 .331 128
2021 09 16 16  23 14 58.370   -12 26 33.01  .08323 1.0870 168.7 21.5 .339 128
2021 09 16 17  23 14 45.176   -12 20 40.24  .08330 1.0870 168.7 21.5 .347 128
2021 09 16 18  23 14 32.016   -12 14 48.00  .08338 1.0871 168.7 21.5 .355 128
2021 09 16 19  23 14 18.891   -12 08 56.28  .08345 1.0872 168.7 21.5 .363 129
2021 09 16 20  23 14 05.800   -12 03 05.10  .08352 1.0872 168.8 21.5 .371 129
2021 09 16 21  23 13 52.745   -11 57 14.46  .08360 1.0873 168.8 21.5 .380 129
2021 09 16 22  23 13 39.724   -11 51 24.35  .08367 1.0874 168.8 21.5 .388 129
2021 09 16 23  23 13 26.737   -11 45 34.78  .08374 1.0875 168.8 21.5 .396 129
2021 09 17 00  23 13 13.785   -11 39 45.75  .08382 1.0875 168.8 21.5 .405 130
2021 09 17 01  23 13 00.868   -11 33 57.26  .08389 1.0876 168.9 21.5 .414 130
2021 09 17 02  23 12 47.984   -11 28 09.33  .08397 1.0877 168.9 21.5 .422 130
2021 09 17 03  23 12 35.136   -11 22 21.94  .08405 1.0877 168.9 21.5 .431 130
2021 09 17 04  23 12 22.321   -11 16 35.11  .08412 1.0878 168.9 21.5 .440 131
2021 09 17 05  23 12 09.540   -11 10 48.83  .08420 1.0879 168.9 21.5 .449 131
2021 09 17 06  23 11 56.794   -11 05 03.11  .08428 1.0879 168.9 21.5 .459 131
2021 09 17 07  23 11 44.082   -10 59 17.94  .08435 1.0880 168.9 21.5 .468 131
2021 09 17 08  23 11 31.404   -10 53 33.34  .08443 1.0881 168.9 21.5 .477 132
2021 09 17 09  23 11 18.760   -10 47 49.30  .08451 1.0881 168.9 21.5 .487 132